"Pseudo-MPEC" for P10Lq6G

Created 2019 Feb 7 11:18:18 UT using Find_Orb

Click here for an explanation of pseudo-MPECs

 
 Astrometry: 
     P10Lq6G  C2019 01 11cvcAstrometry-9H#Pth$q:![bredacted;]ShXPpjtwIi@ow^k;F51
     P10Lq6G  C2019 01 11cH5]click69/Q:D9QQ[cWeY!_1JhereO+?i1A4p_\+BMD+X8PKj'F51
     P10Lq6G  C2019 01 119Lg:2R?;]^A'Ic;for?HRJDYH*7;4b+oI8.vY#beB#IDPPaEIcQtF51
     P10Lq6G  C2019 01 11v8G7dvugi*=-%hO\7/[A9B@c,r7nexplanation(3`*%fH!a5DE-F51

Station data:
(F51) Pan-STARRS 1, Haleakala  (N20.707235 W156.255910)  US/Hawaii.
   Observers N. Primak, A. Schultz, S. Watters, J. Thiel, T. Goggia. Measurer
   PS1 Science Consortium. 1.8-m Ritchey-Chrétien + CCD.

Orbital elements:  P10Lq6G
   Perihelion 2018 Sep 25.976706 +/- 198 TT = 23:26:27 (JD 2458387.476706)
Epoch 2019 Jan 12.0 TT = JDT 2458495.5   Earth MOID: 0.3062   AutoNEOCP
M  45.00253581 +/- 70               (J2000 ecliptic)
n   0.41660029 +/- 0.319            Peri.  346.54134 +/- 80
a   1.77550950 +/- 0.906            Node    64.24924 +/- 60
e   0.2739800 +/- 0.269             Incl.   20.19149 +/- 20
P   2.37/864.12d           H 20.8   G  0.15   U 12.0  SR
q 1.28905530 +/- 0.891    Q 2.26196370 +/- 29.3
From 4 observations 2019 Jan. 11 (53.3 min); mean residual 0".05
Residuals in arcseconds: 
190111 F51  .01+  .04-    190111 F51  .10-  .01+    
190111 F51  .04+  .05+    190111 F51  .05+  .02-    

Ephemerides (geocentric):
Date (UTC) HH   RA              Dec         delta   r     elong  mag " sig PA
---- -- -- --  -------------   -----------  ------ ------ -----  --- ---- ---
2019 02 07 11  10 31 55.869   +58 21 13.28  .75953 1.6160 135.1 22.5  42d 133
2019 02 07 12  10 31 50.834   +58 21 28.29  .75971 1.6161 135.1 22.5  42d 133
2019 02 07 13  10 31 45.795   +58 21 43.20  .75989 1.6163 135.1 22.5  42d 133
2019 02 07 14  10 31 40.754   +58 21 58.02  .76008 1.6164 135.1 22.5  42d 133
2019 02 07 15  10 31 35.710   +58 22 12.75  .76026 1.6166 135.1 22.5  42d 133
2019 02 07 16  10 31 30.664   +58 22 27.39  .76044 1.6167 135.1 22.5  42d 133
2019 02 07 17  10 31 25.615   +58 22 41.94  .76062 1.6169 135.1 22.5  42d 133
2019 02 07 18  10 31 20.563   +58 22 56.40  .76081 1.6170 135.1 22.5  42d 133
2019 02 07 19  10 31 15.508   +58 23 10.76  .76099 1.6172 135.1 22.5  42d 133
2019 02 07 20  10 31 10.451   +58 23 25.04  .76117 1.6173 135.1 22.5  42d 133
2019 02 07 21  10 31 05.391   +58 23 39.22  .76136 1.6175 135.1 22.5  42d 133
2019 02 07 22  10 31 00.328   +58 23 53.31  .76154 1.6176 135.1 22.5  42d 133
2019 02 07 23  10 30 55.263   +58 24 07.31  .76172 1.6178 135.1 22.5  42d 133
2019 02 08 00  10 30 50.196   +58 24 21.22  .76191 1.6179 135.1 22.5  42d 133
2019 02 08 01  10 30 45.126   +58 24 35.03  .76209 1.6181 135.1 22.5  42d 133
2019 02 08 02  10 30 40.053   +58 24 48.76  .76228 1.6183 135.1 22.5  42d 133
2019 02 08 03  10 30 34.978   +58 25 02.39  .76246 1.6184 135.1 22.5  42d 133
2019 02 08 04  10 30 29.901   +58 25 15.93  .76265 1.6186 135.1 22.5  42d 133
2019 02 08 05  10 30 24.821   +58 25 29.38  .76283 1.6187 135.1 22.5  42d 133
2019 02 08 06  10 30 19.739   +58 25 42.74  .76302 1.6189 135.1 22.5  42d 133
2019 02 08 07  10 30 14.654   +58 25 56.01  .76320 1.6190 135.1 22.5  42d 133
2019 02 08 08  10 30 09.567   +58 26 09.18  .76339 1.6192 135.1 22.5  42d 133
2019 02 08 09  10 30 04.478   +58 26 22.26  .76358 1.6193 135.1 22.5  42d 133
2019 02 08 10  10 29 59.386   +58 26 35.25  .76376 1.6195 135.0 22.5  42d 133
2019 02 08 11  10 29 54.292   +58 26 48.15  .76395 1.6196 135.0 22.5  42d 133
2019 02 08 12  10 29 49.196   +58 27 00.96  .76414 1.6198 135.0 22.5  42d 133
2019 02 08 13  10 29 44.098   +58 27 13.68  .76432 1.6199 135.0 22.5  42d 133
2019 02 08 14  10 29 38.998   +58 27 26.30  .76451 1.6201 135.0 22.5  42d 133
2019 02 08 15  10 29 33.895   +58 27 38.83  .76470 1.6202 135.0 22.5  42d 133
2019 02 08 16  10 29 28.790   +58 27 51.27  .76489 1.6204 135.0 22.5  42d 133
2019 02 08 17  10 29 23.684   +58 28 03.62  .76508 1.6205 135.0 22.5  42d 133
2019 02 08 18  10 29 18.575   +58 28 15.88  .76526 1.6207 135.0 22.5  42d 133
2019 02 08 19  10 29 13.464   +58 28 28.05  .76545 1.6209 135.0 22.5  42d 133
2019 02 08 20  10 29 08.351   +58 28 40.12  .76564 1.6210 135.0 22.5  42d 133
2019 02 08 21  10 29 03.236   +58 28 52.10  .76583 1.6212 135.0 22.5  42d 133
2019 02 08 22  10 28 58.119   +58 29 03.99  .76602 1.6213 135.0 22.5  42d 133
2019 02 08 23  10 28 53.000   +58 29 15.79  .76621 1.6215 135.0 22.5  42d 133
2019 02 09 00  10 28 47.879   +58 29 27.50  .76640 1.6216 135.0 22.5  42d 133
2019 02 09 01  10 28 42.756   +58 29 39.11  .76659 1.6218 135.0 22.5  42d 133
2019 02 09 02  10 28 37.632   +58 29 50.63  .76678 1.6219 135.0 22.5  42d 133
2019 02 09 03  10 28 32.505   +58 30 02.07  .76697 1.6221 135.0 22.5  42d 133
2019 02 09 04  10 28 27.377   +58 30 13.40  .76716 1.6222 135.0 22.5  43d 133
2019 02 09 05  10 28 22.247   +58 30 24.65  .76735 1.6224 135.0 22.5  43d 133
2019 02 09 06  10 28 17.115   +58 30 35.81  .76754 1.6225 135.0 22.5  43d 133
2019 02 09 07  10 28 11.982   +58 30 46.87  .76773 1.6227 135.0 22.5  43d 133
2019 02 09 08  10 28 06.846   +58 30 57.84  .76793 1.6228 135.0 22.5  43d 133
2019 02 09 09  10 28 01.709   +58 31 08.72  .76812 1.6230 135.0 22.5  43d 133
2019 02 09 10  10 27 56.570   +58 31 19.51  .76831 1.6231 134.9 22.5  43d 133